{"data":{"norad_id":31797,"epoch":"2026-09-19T21:53:17.460096Z","epoch_age_seconds":65211,"freshness":"FRESH","line1":"1 31797U 07030A   26262.91200764  .00016889  00000+0  18788-3 0  9990","line2":"2 31797  98.1098  20.1382 0003651 170.0941 190.0388 15.62964312 71676","mean_motion":15.62964312,"eccentricity":0.0003651,"inclination_deg":98.1098,"raan_deg":20.1382,"arg_perigee_deg":170.0941,"mean_anomaly_deg":190.0388,"bstar":0.00018788,"rev_number":7167,"period_min":92.132621899559,"perigee_km":376.63265484283,"apogee_km":381.56678909722,"semimajor_km":6757.23672197,"source":"CELESTRAK","updated_at":"2026-09-20T09:00:47.713054Z"}}